| time (UTC) | temp F | wind direction | speed MPH | gust MPH | rain 1hr in | rain 24hr in | rain mn in | humidity % | barometer mb |
| 20260508163015 | 56 | 171 | 5.0 | 10.0 | 0.00 | 0.00 | 0.00 | 38 | 1022.0 |
| 20260508161509 | 57 | 207 | 6.0 | 10.0 | 0.00 | 0.00 | 0.00 | 36 | 1021.9 |
| 20260508160010 | 56 | 207 | 6.0 | 12.0 | 0.00 | 0.00 | 0.00 | 35 | 1022.0 |
| 20260508154510 | 56 | 186 | 9.0 | 14.0 | 0.00 | 0.00 | 0.00 | 32 | 1021.9 |
| 20260508153017 | 57 | 184 | 8.0 | 13.0 | 0.00 | 0.00 | 0.00 | 35 | 1021.9 |
| 20260508151509 | 57 | 157 | 5.0 | 11.0 | 0.00 | 0.00 | 0.00 | 36 | 1021.8 |
| 20260508150009 | 57 | 181 | 8.0 | 15.0 | 0.00 | 0.00 | 0.00 | 36 | 1022.0 |
| 20260508144510 | 57 | 159 | 7.0 | 14.0 | 0.00 | 0.00 | 0.00 | 36 | 1022.0 |
| 20260508143010 | 57 | 170 | 5.0 | 13.0 | 0.00 | 0.00 | 0.00 | 38 | 1022.1 |
| 20260508141510 | 56 | 162 | 6.0 | 16.0 | 0.00 | 0.00 | 0.00 | 35 | 1022.1 |
| 20260508140009 | 56 | 153 | 9.0 | 15.0 | 0.00 | 0.00 | 0.00 | 37 | 1022.1 |
| 20260508134511 | 56 | 138 | 8.0 | 20.0 | 0.00 | 0.00 | 0.00 | 36 | 1022.2 |
| 20260508133009 | 59 | 196 | 3.0 | 10.0 | 0.00 | 0.00 | 0.00 | 32 | 1022.2 |
| 20260508131511 | 58 | 180 | 3.0 | 7.0 | 0.00 | 0.00 | 0.00 | 32 | 1022.2 |
| 20260508130011 | 56 | 182 | 6.0 | 11.0 | 0.00 | 0.00 | 0.00 | 33 | 1022.4 |
| 20260508124510 | 54 | 165 | 1.0 | 11.0 | 0.00 | 0.00 | 0.00 | 36 | 1022.6 |
| 20260508123019 | 53 | 113 | 5.0 | 15.0 | 0.00 | 0.00 | 0.00 | 36 | 1022.6 |
| 20260508121509 | 54 | 157 | 7.0 | 13.0 | 0.00 | 0.00 | 0.00 | 34 | 1022.6 |
| 20260508120009 | 54 | 171 | 6.0 | 13.0 | 0.00 | 0.00 | 0.00 | 37 | 1022.6 |
| 20260508114509 | 53 | 189 | 6.0 | 11.0 | 0.00 | 0.00 | 0.00 | 38 | 1022.6 |
| 20260508113010 | 53 | 144 | 8.0 | 12.0 | 0.00 | 0.00 | 0.00 | 39 | 1022.5 |
| 20260508111515 | 52 | 163 | 4.0 | 12.0 | 0.00 | 0.00 | 0.00 | 44 | 1022.5 |
| 20260508110024 | 52 | 142 | 6.0 | 13.0 | 0.00 | 0.00 | 0.00 | 45 | 1022.5 |
| 20260508104515 | 53 | 132 | 7.0 | 13.0 | 0.00 | 0.00 | 0.00 | 44 | 1022.3 |
| 20260508103026 | 54 | 165 | 6.0 | 14.0 | 0.00 | 0.00 | 0.00 | 44 | 1022.2 |
| 20260508100010 | 54 | 175 | 11.0 | 17.0 | 0.00 | 0.00 | 0.00 | 34 | 1022.1 |
| 20260508094509 | 54 | 201 | 7.0 | 12.0 | 0.00 | 0.00 | 0.00 | 39 | 1022.0 |
| 20260508093011 | 53 | 153 | 6.0 | 14.0 | 0.00 | 0.00 | 0.00 | 45 | 1022.0 |
| 20260508091514 | 53 | 134 | 4.0 | 11.0 | 0.00 | 0.00 | 0.00 | 50 | 1021.9 |
| 20260508090010 | 52 | 162 | 6.0 | 10.0 | 0.00 | 0.00 | 0.00 | 50 | 1021.9 |
| 20260508084509 | 52 | 168 | 6.0 | 11.0 | 0.00 | 0.00 | 0.00 | 45 | 1021.8 |
| 20260508083009 | 52 | 205 | 1.0 | 5.0 | 0.00 | 0.00 | 0.00 | 48 | 1021.8 |
| 20260508081511 | 52 | 233 | 0.0 | 6.0 | 0.00 | 0.00 | 0.00 | 47 | 1021.7 |
| 20260508074509 | 48 | 192 | 5.0 | 7.0 | 0.00 | 0.00 | 0.00 | 52 | 1021.7 |
| 20260508073013 | 48 | 198 | 2.0 | 7.0 | 0.00 | 0.00 | 0.00 | 50 | 1021.6 |
| 20260508071510 | 48 | 355 | 0.0 | 2.0 | 0.00 | 0.00 | 0.00 | 65 | 1021.5 |
| 20260508070010 | 49 | 360 | 0.0 | 1.0 | 0.00 | 0.00 | 0.00 | 62 | 1021.5 |
| 20260508064510 | 51 | 355 | 0.0 | 1.0 | 0.00 | 0.00 | 0.00 | 55 | 1021.3 |
| 20260508063010 | 48 | 355 | 0.0 | 3.0 | 0.00 | 0.00 | 0.00 | 60 | 1021.3 |
| 20260508061510 | 46 | 355 | 0.0 | 1.0 | 0.00 | 0.00 | 0.00 | 63 | 1021.2 |
| 20260508060012 | 44 | 355 | 0.0 | 3.0 | 0.00 | 0.00 | 0.00 | 64 | 1021.1 |
| 20260508054518 | 42 | 355 | 0.0 | 3.0 | 0.00 | 0.00 | 0.00 | 68 | 1021.1 |
| 20260508053010 | 40 | 355 | 0.0 | 5.0 | 0.00 | 0.00 | 0.00 | 71 | 1021.0 |
| 20260508051511 | 39 | 355 | 0.0 | 5.0 | 0.00 | 0.00 | 0.00 | 76 | 1020.7 |
| 20260508050012 | 37 | 355 | 1.0 | 5.0 | 0.00 | 0.00 | 0.00 | 79 | 1020.8 |
| 20260508044510 | 36 | 355 | 1.0 | 5.0 | 0.00 | 0.00 | 0.00 | 81 | 1020.8 |
| 20260508041514 | 35 | 355 | 1.0 | 4.0 | 0.00 | 0.00 | 0.00 | 81 | 1020.5 |
| 20260508040009 | 35 | 355 | 2.0 | 6.0 | 0.00 | 0.00 | 0.00 | 82 | 1020.4 |
| 20260508034511 | 35 | 355 | 0.0 | 6.0 | 0.00 | 0.00 | 0.00 | 82 | 1020.2 |
| 20260508033013 | 35 | 355 | 2.0 | 9.0 | 0.00 | 0.00 | 0.00 | 82 | 1020.1 |
| 20260508031512 | 34 | 355 | 2.0 | 6.0 | 0.00 | 0.00 | 0.00 | 83 | 1020.1 |
| 20260508030009 | 34 | 360 | 1.0 | 5.0 | 0.00 | 0.00 | 0.00 | 84 | 1019.9 |
| 20260508024510 | 34 | 5 | 4.0 | 8.0 | 0.00 | 0.00 | 0.00 | 85 | 1019.8 |
| 20260508023009 | 33 | 360 | 3.0 | 6.0 | 0.00 | 0.00 | 0.00 | 85 | 1019.8 |
| 20260508021510 | 33 | 360 | 1.0 | 5.0 | 0.00 | 0.00 | 0.00 | 85 | 1019.7 |
| 20260508020009 | 34 | 5 | 3.0 | 5.0 | 0.00 | 0.00 | 0.00 | 84 | 1019.6 |
| 20260508014509 | 33 | 5 | 1.0 | 6.0 | 0.00 | 0.00 | 0.00 | 84 | 1019.6 |
| 20260508013012 | 34 | 5 | 4.0 | 6.0 | 0.00 | 0.00 | 0.00 | 84 | 1019.4 |
| 20260508011509 | 34 | 5 | 1.0 | 6.0 | 0.00 | 0.00 | 0.00 | 84 | 1019.4 |
| 20260508010021 | 34 | 5 | 2.0 | 5.0 | 0.00 | 0.00 | 0.00 | 84 | 1019.4 |
| 20260508004518 | 34 | 5 | 1.0 | 5.0 | 0.00 | 0.00 | 0.00 | 84 | 1019.5 |
| 20260508003011 | 34 | 5 | 1.0 | 6.0 | 0.00 | 0.00 | 0.00 | 83 | 1019.5 |
| 20260508001509 | 34 | 11 | 2.0 | 6.0 | 0.00 | 0.00 | 0.00 | 83 | 1019.4 |
| 20260508000009 | 35 | 19 | 2.0 | 6.0 | 0.00 | 0.00 | 0.00 | 82 | 1019.4 |
| 20260507234509 | 35 | 25 | 1.0 | 6.0 | 0.00 | 0.00 | 0.00 | 82 | 1019.4 |
| 20260507233010 | 35 | 35 | 1.0 | 3.0 | 0.00 | 0.00 | 0.00 | 81 | 1019.5 |
| 20260507231511 | 35 | 35 | 0.0 | 5.0 | 0.00 | 0.00 | 0.00 | 81 | 1019.5 |
| 20260507230010 | 35 | 40 | 2.0 | 6.0 | 0.00 | 0.00 | 0.00 | 80 | 1019.4 |
| 20260507224514 | 36 | 42 | 3.0 | 5.0 | 0.00 | 0.00 | 0.00 | 79 | 1019.4 |
| 20260507223010 | 36 | 43 | 2.0 | 5.0 | 0.00 | 0.00 | 0.00 | 78 | 1019.4 |
| 20260507221502 | 37 | 44 | 1.0 | 4.0 | 0.00 | 0.00 | 0.00 | 77 | 1019.3 |
| 20260507220009 | 38 | 45 | 0.0 | 3.0 | 0.00 | 0.00 | 0.00 | 76 | 1019.2 |
| 20260507214513 | 38 | 46 | 0.0 | 3.0 | 0.00 | 0.00 | 0.00 | 74 | 1019.3 |
| 20260507213009 | 39 | 47 | 2.0 | 4.0 | 0.00 | 0.00 | 0.00 | 72 | 1019.1 |
| 20260507211509 | 40 | 148 | 0.0 | 2.0 | 0.00 | 0.00 | 0.00 | 71 | 1019.2 |
| 20260507210010 | 41 | 150 | 0.0 | 2.0 | 0.00 | 0.00 | 0.00 | 69 | 1019.0 |
| 20260507204510 | 42 | 150 | 0.0 | 0.0 | 0.00 | 0.00 | 0.00 | 67 | 1018.8 |
| 20260507203010 | 43 | 150 | 0.0 | 0.0 | 0.00 | 0.00 | 0.00 | 65 | 1018.8 |
| 20260507201512 | 44 | 150 | 0.0 | 0.0 | 0.00 | 0.00 | 0.00 | 63 | 1018.7 |
| 20260507200010 | 45 | 150 | 0.0 | 0.0 | 0.00 | 0.00 | 0.00 | 60 | 1018.7 |
| 20260507194510 | 45 | 150 | 0.0 | 0.0 | 0.00 | 0.00 | 0.00 | 58 | 1018.5 |
| 20260507193009 | 46 | 150 | 0.0 | 6.0 | 0.00 | 0.00 | 0.00 | 54 | 1018.4 |
| 20260507191510 | 47 | 160 | 4.0 | 9.0 | 0.00 | 0.00 | 0.00 | 51 | 1018.2 |
| 20260507190010 | 47 | 134 | 3.0 | 8.0 | 0.00 | 0.00 | 0.00 | 49 | 1018.2 |
| 20260507184509 | 48 | 153 | 5.0 | 10.0 | 0.00 | 0.00 | 0.00 | 42 | 1018.1 |
| 20260507183021 | 48 | 155 | 4.0 | 10.0 | 0.00 | 0.00 | 0.00 | 42 | 1017.9 |
| 20260507181509 | 49 | 151 | 7.0 | 13.0 | 0.00 | 0.00 | 0.00 | 36 | 1017.7 |
| 20260507180009 | 49 | 157 | 8.0 | 14.0 | 0.00 | 0.00 | 0.00 | 36 | 1017.6 |
| 20260507174512 | 50 | 156 | 4.0 | 11.0 | 0.00 | 0.00 | 0.00 | 40 | 1017.4 |
| 20260507173010 | 51 | 148 | 7.0 | 11.0 | 0.00 | 0.00 | 0.00 | 33 | 1017.2 |
| 20260507171510 | 51 | 162 | 8.0 | 11.0 | 0.00 | 0.00 | 0.00 | 33 | 1017.2 |
| 20260507170010 | 51 | 168 | 9.0 | 12.0 | 0.00 | 0.00 | 0.00 | 31 | 1017.2 |
| 20260507164509 | 51 | 142 | 7.0 | 12.0 | 0.00 | 0.00 | 0.00 | 33 | 1017.2 |